BAW965 EDDH-EGLL

Flight info

Callsign BAW965
Flight time 1h 13m
Altitude 38000
Route WSN5G/33 WSN N125 ITMIZ DCT ABNED L980 LOGAN
Aircraft A320/M-SDE3FGHIRWY/LB1

Departure

Time 2026-04-30 20:32
Airport Hamburg Helmut Schmidt Airport (EDDH)

Arrival

Time 2026-04-30 21:46
Airport London Heathrow Airport (EGLL)
Time Latitude Longitude Altitude Speed Heading
2026-04-30 19:50 53.63112 10.00376 46 ft 0 kts 87°
2026-04-30 20:19 53.63112 10.00344 45 ft 4 kts 90°
2026-04-30 20:19 53.63112 10.00314 43 ft 4 kts 95°
2026-04-30 20:19 53.63118 10.00255 47 ft 4 kts 107°
2026-04-30 20:19 53.63128 10.00214 46 ft 4 kts 128°
2026-04-30 20:20 53.63146 10.00190 46 ft 2 kts 174°
2026-04-30 20:20 53.63148 10.00189 47 ft 0 kts 176°
2026-04-30 20:22 53.63147 10.00189 47 ft 1 kts 176°
2026-04-30 20:22 53.63133 10.00191 47 ft 3 kts 176°
2026-04-30 20:22 53.63100 10.00195 48 ft 6 kts 176°
2026-04-30 20:23 53.63052 10.00166 46 ft 9 kts 212°
2026-04-30 20:23 53.62989 10.00100 47 ft 12 kts 212°
2026-04-30 20:23 53.62928 10.00016 49 ft 6 kts 237°
2026-04-30 20:23 53.62924 10.00003 48 ft 0 kts 244°
2026-04-30 20:24 53.62922 9.99996 48 ft 2 kts 244°
2026-04-30 20:25 53.62893 9.99901 48 ft 0 kts 243°
2026-04-30 20:28 53.62891 9.99893 45 ft 3 kts 243°
2026-04-30 20:28 53.62863 9.99776 44 ft 9 kts 278°
2026-04-30 20:29 53.62905 9.99713 45 ft 0 kts 333°
2026-04-30 20:31 53.62995 9.99636 45 ft 45 kts 333°
2026-04-30 20:32 53.65274 9.97649 389 ft 164 kts 332°
2026-04-30 20:32 53.67331 9.95865 1426 ft 174 kts 333°
2026-04-30 20:33 53.68485 9.94892 1666 ft 197 kts 333°
2026-04-30 20:33 53.70866 9.92233 2329 ft 212 kts 303°
2026-04-30 20:33 53.71352 9.89908 2720 ft 223 kts 273°
2026-04-30 20:34 53.70524 9.84414 3473 ft 255 kts 251°
2026-04-30 20:34 53.69373 9.78706 4230 ft 259 kts 251°
2026-04-30 20:35 53.68792 9.75817 4606 ft 260 kts 251°
2026-04-30 20:35 53.68215 9.72918 4984 ft 262 kts 251°
2026-04-30 20:35 53.67058 9.67067 5737 ft 264 kts 251°
2026-04-30 20:36 53.66478 9.64120 6103 ft 266 kts 251°
2026-04-30 20:36 53.65893 9.61158 6491 ft 267 kts 251°
2026-04-30 20:36 53.64241 9.55541 7246 ft 270 kts 234°
2026-04-30 20:37 53.63131 9.52967 7623 ft 272 kts 234°
2026-04-30 20:37 53.62020 9.50385 7999 ft 273 kts 234°
2026-04-30 20:37 53.60903 9.47785 8375 ft 275 kts 234°
2026-04-30 20:37 53.59782 9.45172 8759 ft 276 kts 234°
2026-04-30 20:38 53.58677 9.42522 9129 ft 278 kts 240°
2026-04-30 20:38 53.57889 9.39556 9502 ft 279 kts 248°
2026-04-30 20:38 53.57153 9.36522 9877 ft 281 kts 248°
2026-04-30 20:39 53.55618 9.30180 10637 ft 309 kts 248°
2026-04-30 20:39 53.54788 9.26750 10977 ft 325 kts 248°
2026-04-30 20:39 53.53921 9.23173 11500 ft 334 kts 248°
2026-04-30 20:40 53.52141 9.15857 12786 ft 341 kts 248°
2026-04-30 20:40 53.51237 9.12157 13412 ft 344 kts 248°
2026-04-30 20:40 53.50320 9.08421 14026 ft 348 kts 248°
2026-04-30 20:41 53.48471 9.00897 15202 ft 354 kts 248°
2026-04-30 20:41 53.47526 8.97066 15766 ft 357 kts 247°
2026-04-30 20:41 53.46573 8.93215 16316 ft 360 kts 247°
2026-04-30 20:41 53.45607 8.89316 16858 ft 362 kts 247°
2026-04-30 20:42 53.44633 8.85386 17403 ft 365 kts 247°
2026-04-30 20:42 53.43655 8.81437 17942 ft 368 kts 247°
2026-04-30 20:42 53.41666 8.73432 19005 ft 374 kts 247°
2026-04-30 20:43 53.40671 8.69440 19521 ft 377 kts 247°
2026-04-30 20:43 53.39652 8.65358 20034 ft 380 kts 247°
2026-04-30 20:43 53.38629 8.61261 20518 ft 383 kts 247°
2026-04-30 20:44 53.36557 8.52988 21462 ft 388 kts 247°
2026-04-30 20:44 53.35506 8.48814 21910 ft 391 kts 247°
2026-04-30 20:44 53.33374 8.40389 22766 ft 396 kts 247°
2026-04-30 20:45 53.31213 8.31855 23569 ft 400 kts 247°
2026-04-30 20:45 53.30127 8.27558 23950 ft 403 kts 247°
2026-04-30 20:45 53.29030 8.23230 24348 ft 405 kts 247°
2026-04-30 20:46 53.25695 8.10175 25486 ft 412 kts 246°
2026-04-30 20:46 53.24559 8.05764 25856 ft 415 kts 246°
2026-04-30 20:47 53.22262 7.96881 26564 ft 419 kts 246°
2026-04-30 20:47 53.21103 7.92403 26909 ft 421 kts 246°
2026-04-30 20:48 53.18775 7.83384 27598 ft 426 kts 246°
2026-04-30 20:48 53.17599 7.78843 27938 ft 428 kts 246°
2026-04-30 20:48 53.16416 7.74278 28264 ft 430 kts 246°
2026-04-30 20:48 53.15224 7.69687 28590 ft 432 kts 246°
2026-04-30 20:49 53.14025 7.65084 28904 ft 434 kts 246°
2026-04-30 20:49 53.12817 7.60471 29203 ft 436 kts 246°
2026-04-30 20:49 53.11599 7.55836 29589 ft 436 kts 246°
2026-04-30 20:50 53.09174 7.46617 30440 ft 434 kts 246°
2026-04-30 20:50 53.07963 7.42016 30850 ft 433 kts 246°
2026-04-30 20:50 53.06753 7.37434 31260 ft 432 kts 246°
2026-04-30 20:50 53.05542 7.32861 31648 ft 431 kts 246°
2026-04-30 20:51 53.04330 7.28307 32058 ft 431 kts 246°
2026-04-30 20:51 53.01910 7.19230 32844 ft 429 kts 246°
2026-04-30 20:51 53.00701 7.14702 33228 ft 428 kts 246°
2026-04-30 20:52 52.99510 7.10247 33605 ft 428 kts 246°
2026-04-30 20:52 52.98307 7.05741 33986 ft 427 kts 246°
2026-04-30 20:52 52.95901 6.96766 34691 ft 425 kts 246°
2026-04-30 20:53 52.94692 6.92292 35026 ft 425 kts 246°
2026-04-30 20:53 52.93484 6.87834 35341 ft 424 kts 246°
2026-04-30 20:53 52.92275 6.83377 35659 ft 423 kts 246°
2026-04-30 20:54 52.89861 6.74483 36252 ft 422 kts 246°
2026-04-30 20:54 52.88658 6.70056 36521 ft 422 kts 246°
2026-04-30 20:54 52.87453 6.65628 36780 ft 422 kts 245°
2026-04-30 20:55 52.85031 6.56780 37259 ft 422 kts 245°
2026-04-30 20:55 52.83817 6.52364 37489 ft 422 kts 245°
2026-04-30 20:55 52.82603 6.47952 37727 ft 422 kts 245°
2026-04-30 20:56 52.80168 6.39120 38004 ft 424 kts 245°
2026-04-30 20:56 52.78934 6.34653 38010 ft 429 kts 245°
2026-04-30 20:57 52.75185 6.21137 38009 ft 432 kts 245°
2026-04-30 20:57 52.72668 6.12124 38009 ft 432 kts 245°
2026-04-30 20:58 52.68886 5.98618 38010 ft 432 kts 245°
2026-04-30 20:58 52.66372 5.89685 38013 ft 433 kts 245°
2026-04-30 20:59 52.62553 5.76186 38023 ft 434 kts 245°
2026-04-30 21:00 52.57430 5.58220 38027 ft 433 kts 245°
2026-04-30 21:01 52.53574 5.44779 38024 ft 433 kts 245°
2026-04-30 21:02 52.49726 5.31417 38028 ft 433 kts 244°
2026-04-30 21:02 52.47124 5.22427 38024 ft 433 kts 244°
2026-04-30 21:03 52.44543 5.13559 38025 ft 434 kts 244°
2026-04-30 21:03 52.41935 5.04646 38025 ft 434 kts 244°
2026-04-30 21:04 52.39325 4.95746 38026 ft 434 kts 244°
2026-04-30 21:04 52.35403 4.82398 38029 ft 434 kts 244°
2026-04-30 21:05 52.32780 4.73516 38028 ft 434 kts 244°
2026-04-30 21:05 52.30149 4.64642 38030 ft 434 kts 244°
2026-04-30 21:06 52.27521 4.55836 38028 ft 434 kts 244°
2026-04-30 21:06 52.24874 4.46983 38028 ft 434 kts 244°
2026-04-30 21:07 52.22226 4.38144 38030 ft 434 kts 244°
2026-04-30 21:07 52.19560 4.29320 38029 ft 434 kts 244°
2026-04-30 21:08 52.17032 4.20980 38027 ft 434 kts 244°
2026-04-30 21:08 52.14365 4.12176 38029 ft 434 kts 244°
2026-04-30 21:09 52.11683 4.03375 38028 ft 434 kts 243°
2026-04-30 21:09 52.08995 3.94589 38028 ft 434 kts 243°
2026-04-30 21:10 52.06294 3.85803 38032 ft 434 kts 243°
2026-04-30 21:10 52.03592 3.77039 38027 ft 434 kts 243°
2026-04-30 21:11 52.00888 3.68281 38029 ft 434 kts 243°
2026-04-30 21:11 51.98184 3.59536 38029 ft 434 kts 243°
2026-04-30 21:12 51.95473 3.50788 38029 ft 434 kts 243°
2026-04-30 21:12 51.92748 3.42066 38027 ft 434 kts 243°
2026-04-30 21:13 51.90015 3.33355 38027 ft 434 kts 243°
2026-04-30 21:13 51.87273 3.24666 38030 ft 434 kts 243°
2026-04-30 21:14 51.85011 3.15723 38029 ft 433 kts 257°
2026-04-30 21:14 51.84208 3.06087 38023 ft 433 kts 264°
2026-04-30 21:15 51.83582 2.96396 38023 ft 433 kts 264°
2026-04-30 21:15 51.82943 2.86714 38023 ft 433 kts 264°
2026-04-30 21:16 51.82289 2.77024 38024 ft 433 kts 264°
2026-04-30 21:16 51.81626 2.67343 38024 ft 433 kts 264°
2026-04-30 21:17 51.80968 2.57665 38035 ft 432 kts 263°
2026-04-30 21:17 51.80296 2.48038 38039 ft 430 kts 263°
2026-04-30 21:18 51.79736 2.40066 37805 ft 430 kts 263°
2026-04-30 21:18 51.79396 2.35258 37230 ft 431 kts 263°
2026-04-30 21:18 51.78938 2.28894 36495 ft 431 kts 263°
2026-04-30 21:19 51.78587 2.24079 35936 ft 431 kts 263°
2026-04-30 21:19 51.78246 2.19262 35346 ft 432 kts 264°
2026-04-30 21:19 51.77945 2.14438 34736 ft 433 kts 264°
2026-04-30 21:19 51.77670 2.09586 34084 ft 434 kts 265°
2026-04-30 21:20 51.77492 2.06308 33647 ft 435 kts 265°
2026-04-30 21:20 51.77227 2.01435 32969 ft 436 kts 265°
2026-04-30 21:20 51.76952 1.96555 32268 ft 438 kts 264°
2026-04-30 21:20 51.76663 1.91666 31708 ft 435 kts 264°
2026-04-30 21:21 51.76373 1.86886 31197 ft 432 kts 264°
2026-04-30 21:21 51.76078 1.82087 30676 ft 428 kts 264°
2026-04-30 21:21 51.75485 1.72608 29634 ft 421 kts 264°
2026-04-30 21:22 51.75186 1.67917 29109 ft 418 kts 264°
2026-04-30 21:22 51.74313 1.54097 27548 ft 408 kts 264°
2026-04-30 21:23 51.74024 1.49544 27028 ft 405 kts 264°
2026-04-30 21:23 51.73737 1.45068 26513 ft 401 kts 264°
2026-04-30 21:23 51.73159 1.36170 25500 ft 395 kts 264°
2026-04-30 21:24 51.72871 1.31779 25005 ft 392 kts 264°
2026-04-30 21:24 51.72584 1.27415 24517 ft 390 kts 264°
2026-04-30 21:24 51.72299 1.23093 24038 ft 387 kts 264°
2026-04-30 21:24 51.72011 1.18795 23567 ft 384 kts 264°
2026-04-30 21:25 51.71437 1.10345 22675 ft 379 kts 264°
2026-04-30 21:25 51.71148 1.06118 22190 ft 376 kts 264°
2026-04-30 21:25 51.70863 1.01945 21726 ft 373 kts 264°
2026-04-30 21:26 51.70298 0.93672 20778 ft 368 kts 264°
2026-04-30 21:26 51.70016 0.89578 20316 ft 365 kts 263°
2026-04-30 21:27 51.69454 0.81546 19356 ft 360 kts 263°
2026-04-30 21:27 51.69173 0.77545 18873 ft 358 kts 263°
2026-04-30 21:27 51.68893 0.73572 18389 ft 355 kts 263°
2026-04-30 21:28 51.68335 0.65720 17435 ft 350 kts 263°
2026-04-30 21:28 51.68056 0.61832 16958 ft 348 kts 263°
2026-04-30 21:28 51.67508 0.54325 16649 ft 325 kts 263°
2026-04-30 21:29 51.67249 0.50777 16516 ft 314 kts 263°
2026-04-30 21:29 51.66496 0.40473 15603 ft 305 kts 263°
2026-04-30 21:30 51.65996 0.33631 14419 ft 319 kts 263°
2026-04-30 21:31 51.65287 0.22932 13372 ft 308 kts 264°
2026-04-30 21:31 51.64915 0.16299 12975 ft 294 kts 265°
2026-04-30 21:32 51.64551 0.09781 12334 ft 291 kts 265°
2026-04-30 21:32 51.64362 0.06542 12009 ft 289 kts 264°
2026-04-30 21:32 51.64175 0.03333 11684 ft 288 kts 264°
2026-04-30 21:32 51.63988 0.00123 11359 ft 287 kts 264°
2026-04-30 21:33 51.63799 -0.03060 11038 ft 285 kts 264°
2026-04-30 21:33 51.63441 -0.09089 10432 ft 283 kts 264°
2026-04-30 21:33 51.63252 -0.12236 10106 ft 281 kts 264°
2026-04-30 21:34 51.63065 -0.15365 9785 ft 280 kts 264°
2026-04-30 21:34 51.62690 -0.21578 9149 ft 278 kts 264°
2026-04-30 21:34 51.62498 -0.24661 8832 ft 276 kts 264°
2026-04-30 21:35 51.62306 -0.27731 8516 ft 275 kts 264°
2026-04-30 21:35 51.62116 -0.30790 8200 ft 274 kts 264°
2026-04-30 21:35 51.61930 -0.33774 7895 ft 273 kts 264°
2026-04-30 21:35 51.61741 -0.36802 7585 ft 272 kts 264°
2026-04-30 21:36 51.61555 -0.39816 7274 ft 270 kts 264°
2026-04-30 21:36 51.61367 -0.42819 6960 ft 269 kts 264°
2026-04-30 21:37 51.60819 -0.51520 6433 ft 250 kts 264°
2026-04-30 21:37 51.60645 -0.54260 6307 ft 242 kts 264°
2026-04-30 21:37 51.60475 -0.56925 6181 ft 234 kts 264°
2026-04-30 21:37 51.60311 -0.59484 6055 ft 226 kts 264°
2026-04-30 21:38 51.60152 -0.61966 5877 ft 221 kts 264°
2026-04-30 21:38 51.59995 -0.64414 5606 ft 219 kts 264°
2026-04-30 21:38 51.59838 -0.66849 5365 ft 217 kts 264°
2026-04-30 21:38 51.59588 -0.69161 5240 ft 210 kts 249°
2026-04-30 21:39 51.58808 -0.71059 5112 ft 202 kts 221°
2026-04-30 21:39 51.57618 -0.72104 4999 ft 191 kts 194°
2026-04-30 21:39 51.56327 -0.72524 4677 ft 189 kts 191°
2026-04-30 21:39 51.55039 -0.72913 4356 ft 188 kts 191°
2026-04-30 21:40 51.53755 -0.73300 4027 ft 187 kts 191°
2026-04-30 21:40 51.52477 -0.73685 3709 ft 187 kts 191°
2026-04-30 21:40 51.51218 -0.74064 3387 ft 181 kts 191°
2026-04-30 21:40 51.50013 -0.74375 3078 ft 166 kts 181°
2026-04-30 21:41 51.48948 -0.74004 2745 ft 152 kts 153°
2026-04-30 21:41 51.48155 -0.72982 2414 ft 144 kts 128°
2026-04-30 21:41 51.47720 -0.71579 2088 ft 140 kts 104°
2026-04-30 21:41 51.47659 -0.70043 1945 ft 138 kts 89°
2026-04-30 21:42 51.47670 -0.68499 1939 ft 139 kts 89°
2026-04-30 21:42 51.47676 -0.66947 1937 ft 139 kts 89°
2026-04-30 21:42 51.47683 -0.65394 1936 ft 139 kts 89°
2026-04-30 21:42 51.47689 -0.63842 1935 ft 139 kts 89°
2026-04-30 21:43 51.47696 -0.62281 1838 ft 140 kts 89°
2026-04-30 21:43 51.47705 -0.60725 1595 ft 139 kts 89°
2026-04-30 21:43 51.47716 -0.59180 1355 ft 138 kts 89°
2026-04-30 21:43 51.47720 -0.57643 1167 ft 137 kts 90°
2026-04-30 21:44 51.47715 -0.56109 1016 ft 138 kts 90°
2026-04-30 21:44 51.47718 -0.54579 841 ft 137 kts 89°
2026-04-30 21:44 51.47733 -0.53065 671 ft 137 kts 89°
2026-04-30 21:44 51.47750 -0.51537 483 ft 137 kts 89°
2026-04-30 21:45 51.47751 -0.50015 305 ft 136 kts 90°
2026-04-30 21:45 51.47749 -0.48506 141 ft 136 kts 89°
2026-04-30 21:45 51.47755 -0.47073 91 ft 110 kts 89°
2026-04-30 21:45 51.47760 -0.46150 86 ft 63 kts 89°
2026-04-30 21:46 51.47759 -0.45596 87 ft 35 kts 90°
2026-04-30 21:46 51.47696 -0.45469 89 ft 13 kts 171°
2026-04-30 21:46 51.47625 -0.45471 86 ft 9 kts 193°
2026-04-30 21:46 51.47596 -0.45581 87 ft 14 kts 270°
2026-04-30 21:47 51.47597 -0.45767 86 ft 19 kts 270°
2026-04-30 21:47 51.47597 -0.46006 86 ft 24 kts 271°
2026-04-30 21:47 51.47595 -0.46297 90 ft 28 kts 268°
2026-04-30 21:47 51.47593 -0.46595 86 ft 25 kts 269°
2026-04-30 21:48 51.47584 -0.46886 86 ft 28 kts 264°
2026-04-30 21:48 51.47582 -0.47211 90 ft 30 kts 270°
2026-04-30 21:48 51.47581 -0.47557 90 ft 32 kts 269°
2026-04-30 21:48 51.47579 -0.47887 88 ft 28 kts 269°
2026-04-30 21:49 51.47578 -0.48165 88 ft 25 kts 270°
2026-04-30 21:49 51.47577 -0.48399 86 ft 15 kts 270°
2026-04-30 21:49 51.47516 -0.48476 86 ft 12 kts 185°
2026-04-30 21:49 51.47487 -0.48588 87 ft 8 kts 270°
2026-04-30 21:50 51.47487 -0.48654 89 ft 8 kts 270°
2026-04-30 21:50 51.47487 -0.48759 89 ft 11 kts 270°
2026-04-30 21:50 51.47487 -0.48854 88 ft 10 kts 269°
2026-04-30 21:50 51.47454 -0.48894 87 ft 7 kts 170°
2026-04-30 21:51 51.47418 -0.48891 88 ft 2 kts 181°
2026-04-30 21:51 51.47404 -0.48891 88 ft 0 kts 180°